Weather History for Ozona, TX

Change the Weather History Date:

Saturday, September 7, 2013

  Actual Average Record
Temperature  
Mean Temperature 80 °F -  
Max Temperature 95 °F 89 °F 100 °F (2012)
Min Temperature 64 °F 64 °F 46 °F (2011)
Cooling Degree Days 14    
Growing Degree Days 30 (Base 50)    
Moisture  
Dew Point 58 °F    
Average Humidity 52    
Maximum Humidity 88    
Minimum Humidity 23    
Precipitation  
Precipitation 0.00 in - - ()
Sea Level Pressure  
Sea Level Pressure 30.07 in    
Wind  
Wind Speed - (North)    
Max Wind Speed -    
Max Gust Speed -    
Visibility 10 miles    
Events      
Averages and records for this station are not official NWS values.
T = Trace of Precipitation, MM = Missing Value Source: NWS Daily Summary

Daily Weather History Graph

Daily Weather History Graph

Search for Another Location

Airport:

Trip Planner

Search our weather history database for the weather conditions in past years. The results will help you decide how hot, cold, wet, or windy it might be!

Date:

Astronomy

Sep. 07, 2013 Rise Set
Actual Time 7:24 AM CDT 8:00 PM CDT
Civil Twilight 7:00 AM CDT 8:24 PM CDT
Nautical Twilight 6:31 AM CDT 8:52 PM CDT
Astronomical Twilight 6:02 AM CDT 9:22 PM CDT
Moon 9:28 AM CDT (9/7) 9:14 PM CDT (9/7)
Length of Visible Light 13h 23m
Length of Day
12h 35m
Waxing Crescent, 5% of the Moon is Illuminated
Sep 7
Waxing Crescent
Sep 12
First Quarter
Sep 19
Full
Sep 26
Last Quarter
Oct 4
New

Hourly Weather History & Observations

Time (CDT) Temp. Heat Index Dew Point Humidity Pressure Visibility Wind Dir Wind Speed Gust Speed Precip Events Conditions
12:15 AM 77.0 °F - 62.6 °F 61% 30.10 in 10.0 mi North - - N/A   Clear
12:35 AM 73.4 °F - 62.6 °F 69% 30.10 in 10.0 mi North - - N/A   Clear
12:55 AM 73.4 °F - 62.6 °F 69% 30.10 in 10.0 mi North - - N/A   Clear
1:15 AM 71.6 °F - 62.6 °F 73% 30.09 in 10.0 mi North - - N/A   Clear
1:35 AM 69.8 °F - 60.8 °F 73% 30.09 in 10.0 mi North - - N/A   Clear
1:55 AM 71.6 °F - 60.8 °F 69% 30.10 in 10.0 mi North - - N/A   Clear
2:15 AM 69.8 °F - 60.8 °F 73% 30.10 in 10.0 mi North - - N/A   Clear
2:35 AM 69.8 °F - 60.8 °F 73% 30.10 in 10.0 mi North - - N/A   Clear
2:55 AM 68.0 °F - 60.8 °F 78% 30.09 in 10.0 mi North - - N/A   Clear
3:15 AM 68.0 °F - 62.6 °F 83% 30.09 in 10.0 mi North - - N/A   Clear
3:35 AM 69.8 °F - 60.8 °F 73% 30.09 in 10.0 mi North - - N/A   Clear
3:55 AM 68.0 °F - 60.8 °F 78% 30.10 in 10.0 mi North - - N/A   Clear
4:15 AM 68.0 °F - 60.8 °F 78% 30.09 in 10.0 mi North - - N/A   Clear
4:35 AM 66.2 °F - 60.8 °F 83% 30.09 in 10.0 mi North - - N/A   Clear
4:55 AM 68.0 °F - 60.8 °F 78% 30.10 in 10.0 mi North - - N/A   Clear
5:15 AM 68.0 °F - 60.8 °F 78% 30.10 in 10.0 mi North - - N/A   Clear
5:35 AM 66.2 °F - 60.8 °F 83% 30.10 in 10.0 mi North - - N/A   Clear
5:55 AM 64.4 °F - 59.0 °F 83% 30.10 in 10.0 mi North - - N/A   Clear
6:15 AM 66.2 °F - 60.8 °F 83% 30.11 in 10.0 mi North - - N/A   Clear
6:35 AM 64.4 °F - 60.8 °F 88% 30.11 in 10.0 mi North - - N/A   Clear
6:55 AM 64.4 °F - 60.8 °F 88% 30.11 in 10.0 mi North - - N/A   Clear
7:15 AM 64.4 °F - 59.0 °F 83% 30.11 in 10.0 mi North - - N/A   Clear
7:35 AM 64.4 °F - 59.0 °F 83% 30.12 in 10.0 mi North - - N/A   Clear
7:55 AM 64.4 °F - 60.8 °F 88% 30.12 in 10.0 mi North - - N/A   Clear
8:15 AM 68.0 °F - 60.8 °F 78% 30.12 in 10.0 mi North - - N/A   Clear
8:35 AM 69.8 °F - 62.6 °F 78% 30.13 in 10.0 mi North - - N/A   Clear
8:55 AM 73.4 °F - 64.4 °F 73% 30.13 in 10.0 mi North - - N/A   Clear
9:15 AM 77.0 °F - 64.4 °F 65% 30.13 in 10.0 mi North - - N/A   Clear
9:35 AM 78.8 °F - 66.2 °F 65% 30.13 in 10.0 mi North - - N/A   Clear
9:55 AM 78.8 °F - 64.4 °F 61% 30.14 in 10.0 mi North - - N/A   Clear
10:15 AM 80.6 °F 82.3 °F 64.4 °F 58% 30.14 in 10.0 mi North - - N/A   Clear
10:35 AM 82.4 °F 83.9 °F 64.4 °F 54% 30.14 in 10.0 mi North - - N/A   Clear
10:55 AM 82.4 °F 83.9 °F 64.4 °F 54% 30.14 in 10.0 mi North - - N/A   Clear
11:15 AM 86.0 °F 86.6 °F 62.6 °F 45% 30.14 in 10.0 mi North - - N/A   Clear
11:35 AM 86.0 °F 86.1 °F 60.8 °F 43% 30.14 in 10.0 mi North - - N/A   Clear
11:55 AM 86.0 °F 86.1 °F 60.8 °F 43% 30.14 in 10.0 mi North - - N/A   Clear
12:15 PM 87.8 °F 87.6 °F 60.8 °F 40% 30.13 in 10.0 mi North - - N/A   Scattered Clouds
12:35 PM 87.8 °F 87.6 °F 60.8 °F 40% 30.12 in 10.0 mi North - - N/A   Clear
12:55 PM 87.8 °F 87.1 °F 59.0 °F 38% 30.12 in 10.0 mi North - - N/A   Clear
1:15 PM 87.8 °F 86.5 °F 57.2 °F 35% 30.11 in 10.0 mi North - - N/A   Clear
1:35 PM 91.4 °F 89.9 °F 57.2 °F 31% 30.10 in 10.0 mi North - - N/A   Clear
1:55 PM 87.8 °F 86.1 °F 55.4 °F 33% 30.09 in 10.0 mi North - - N/A   Clear
2:15 PM 91.4 °F 89.4 °F 55.4 °F 29% 30.09 in 10.0 mi North - - N/A   Clear
2:35 PM 91.4 °F 89.1 °F 53.6 °F 28% 30.08 in 10.0 mi North - - N/A   Clear
2:55 PM 91.4 °F 89.1 °F 53.6 °F 28% 30.06 in 10.0 mi North - - N/A   Clear
3:15 PM 91.4 °F 89.1 °F 53.6 °F 28% 30.05 in 10.0 mi North - - N/A   Clear
3:35 PM 93.2 °F 90.8 °F 53.6 °F 26% 30.04 in 10.0 mi North - - N/A   Clear
3:55 PM 93.2 °F 90.8 °F 53.6 °F 26% 30.03 in 10.0 mi North - - N/A   Clear
4:15 PM 93.2 °F 90.8 °F 53.6 °F 26% 30.02 in 10.0 mi North - - N/A   Clear
4:35 PM 95.0 °F - 51.8 °F 23% 30.01 in 10.0 mi North - - N/A   Clear
4:55 PM 95.0 °F - 51.8 °F 23% 30.00 in 10.0 mi North - - N/A   Clear
5:15 PM 95.0 °F - 51.8 °F 23% 30.00 in 10.0 mi North - - N/A   Clear
5:35 PM 91.4 °F - 51.8 °F 26% 29.99 in 10.0 mi North - - N/A   Clear
5:55 PM 93.2 °F - 51.8 °F 24% 29.99 in 10.0 mi North - - N/A   Clear
6:15 PM 91.4 °F - 51.8 °F 26% 29.99 in 10.0 mi North - - N/A   Clear
6:35 PM 91.4 °F - 50.0 °F 24% 29.99 in 10.0 mi North - - N/A   Clear
6:55 PM 91.4 °F - 51.8 °F 26% 29.99 in 10.0 mi North - - N/A   Clear
7:15 PM 91.4 °F - 50.0 °F 24% 29.99 in 10.0 mi North - - N/A   Clear
7:35 PM 89.6 °F - 51.8 °F 27% 29.99 in 10.0 mi North - - N/A   Clear
7:55 PM 89.6 °F - 50.0 °F 26% 29.99 in 10.0 mi North - - N/A   Clear
8:15 PM 87.8 °F - 50.0 °F 27% 30.00 in 10.0 mi North - - N/A   Clear
8:35 PM 86.0 °F - 50.0 °F 29% 30.00 in 10.0 mi North - - N/A   Clear
8:55 PM 86.0 °F - 50.0 °F 29% 30.01 in 10.0 mi North - - N/A   Clear
9:15 PM 82.4 °F - 51.8 °F 35% 30.01 in 10.0 mi North - - N/A   Clear
9:35 PM 82.4 °F - 51.8 °F 35% 30.02 in 10.0 mi North - - N/A   Clear
9:55 PM 82.4 °F 81.4 °F 53.6 °F 37% 30.03 in 10.0 mi North - - N/A   Clear
10:15 PM 82.4 °F 81.7 °F 55.4 °F 39% 30.03 in 10.0 mi North - - N/A   Clear
10:35 PM 80.6 °F 81.1 °F 59.0 °F 48% 30.04 in 10.0 mi North - - N/A   Clear
10:55 PM 80.6 °F 81.5 °F 60.8 °F 51% 30.05 in 10.0 mi North - - N/A   Clear
11:15 PM 80.6 °F 81.5 °F 60.8 °F 51% 30.05 in 10.0 mi North - - N/A   Clear
11:35 PM 78.8 °F - 60.8 °F 54% 30.05 in 10.0 mi North - - N/A   Clear
11:55 PM 78.8 °F - 60.8 °F 54% 30.05 in 10.0 mi North - - N/A   Clear